Regional Weather Roundup
Issued by NWS

Home | Current Version | Previous Version | Text Only | Print | Product List | Glossary On
Versions: 1 2 3 4 5 6 7 8 9 10 11 12 13 14 15 16 17 18 19 20 21 22 23 24 25 26 27 28 29 30 31 32 33 34 35 36 37 38 39 40 41 42 43 44 45 46 47 48 49 50
000
ASUS43 KDTX 041910
RWRMI
MICHIGAN HOURLY REGIONAL WEATHER ROUNDUP
NATIONAL WEATHER SERVICE DETROIT/PONTIAC MI
300 PM EDT MON MAY 04 2015

NOTE: "FAIR" INDICATES FEW OR NO CLOUDS BELOW 12,000 FEET WITH NO
SIGNIFICANT WEATHER AND/OR OBSTRUCTION TO VISIBILITY.

MIZ047>049-052>055-059>063-066>070-074>076-081>083-042000-
SOUTHEAST LOWER MICHIGAN

CITY           SKY/WX    TMP DP  RH WIND       PRES   REMARKS
ADRIAN         CLOUDY    67  59  75 SW10      30.11R
ALMA           CLOUDY    72  57  60 N6        30.07S
ANN ARBOR      CLOUDY    76  56  49 W14       30.07S
BAD AXE        CLOUDY    65  55  69 W13       30.07R
CARO           CLOUDY    68  57  68 NW5       30.07R
DETROIT CITY   PTSUNNY   73  57  57 SW12      30.05S
DETROIT        CLOUDY    76  58  53 S12       30.07S
FLINT          CLOUDY    75  57  53 W18       30.06R
GROSSE ILE     CLOUDY    68  61  77 S13G20    30.07F
HILLSDALE      PTSUNNY   74  56  52 W10G16    30.10R
HOWELL         CLOUDY    74  54  49 W14G23    30.06S

CITY           SKY/WX    TMP DP  RH WIND       PRES   REMARKS
JACKSON        CLOUDY    74  56  53 W14       30.08R
LAMBERTVILLE   CLOUDY    68  59  73 SW8       30.11S
LANSING        CLOUDY    73  56  54 NW14      30.08S
LAPEER         CLOUDY    73  55  54 W9G20     30.06R
MASON          CLOUDY    73  54  50 W13G20    30.08R
MONROE         CLOUDY    68  59  73 SW15G21   30.08S
MT. CLEMENS    CLOUDY    76  57  52 SW13      30.02S
PONTIAC        CLOUDY    74  54  49 W16       30.05R
PORT HOPE        N/A     64  55  72 VRB7      30.05R
PORT HURON     CLOUDY    73  57  56 SW3       30.04S
TRI CITIES     CLOUDY    72  57  59 NW8       30.07R
MIDLAND        PTSUNNY   71  55  57 N10       30.06S
TROY           CLOUDY    77  52  41 W15G22    30.07R
SAGINAW HB     CLOUDY    70  55  60 NW9       30.06R
$$
MIZ043>046-050>051-056>058-064>065-071>073-077>080-042000-
SOUTHWEST LOWER MICHIGAN

CITY           SKY/WX    TMP DP  RH WIND       PRES   REMARKS
BATTLE CREEK   PTSUNNY   73  56  54 NW14G20   30.11R
BENTON HARBOR  PTSUNNY   64  57  78 NW6       30.14R
BIG RAPIDS     CLOUDY    70  53  55 N8        30.08R
COLDWATER      PTSUNNY   73  57  57 W13       30.10R
FREMONT        PTSUNNY   73  50  44 W5        30.08R
HOLLAND        CLOUDY    58  53  84 W8        30.14R
GRAND RAPIDS   CLOUDY    70  57  63 W14       30.10R
IONIA          PTSUNNY   72  55  56 W9        30.08R
KALAMAZOO      PTSUNNY   73  57  57 W10G17    30.11R
LUDINGTON      MOSUNNY   71  35  27 N16       30.12R
MARSHALL       CLOUDY    73  57  56 MISG      30.09R
MOUNT PLEASANT PTSUNNY   71  56  58 NW6       30.07R
MUSKEGON       PTSUNNY   58  49  72 W7        30.12R
SOUTH HAVEN    PTSUNNY   62  55  75 W8        30.14R
$$
MIZ016>042-042000-
NORTHERN LOWER MICHIGAN

CITY           SKY/WX    TMP DP  RH WIND       PRES   REMARKS
ALPENA         SUNNY     73  40  30 N14       30.04R
BEAVER ISLAND  SUNNY     60  40  46 NW12G20   30.14R
BELLAIRE       MOSUNNY   64  44  47 NW7G16    30.12R
CADILLAC       SUNNY     68  35  29 N12G17    30.10R
CHARLEVOIX     SUNNY     58  43  58 W13       30.16R
FRANKFORT      SUNNY     63  38  39 N15G22    30.14R
GAYLORD        SUNNY     66  29  24 NW10G20   30.09R
GRAYLING       SUNNY     71  35  27 W15       30.09R
HARBOR SPRINGS MOSUNNY   49  40  71 SW13      30.11R
HOUGHTON LAKE  MOSUNNY   71  41  33 NW12      30.08R
MANISTEE       MOSUNNY   63  43  48 NW13      30.13R
OSCODA         PTSUNNY   74  44  34 N5        30.03R
PELLSTON       MOSUNNY   67  39  35 NW22G29   30.10R
ROGERS CITY    SUNNY     66  42  41 NW15G22   30.07R
TRAVERSE CITY  MOSUNNY   61  43  51 NE9       30.13R
$$
MIZ007>008-015-042000-
EASTERN UPPER MICHIGAN

CITY           SKY/WX    TMP DP  RH WIND       PRES   REMARKS
KINROSS        SUNNY     61  39  44 NW21G29   30.07R
MACKINAC ISLAN SUNNY     65  37  34 NW13G20   30.08R
NEWBERRY       SUNNY     59  39  46 NW13G22   30.13R
S. S. MARIE    SUNNY     54  39  57 NW14G22   30.08R
MUNISING         N/A     50  38  63 NW16      30.19R
$$
MIZ004>006-011>014-085-042000-
CENTRAL UPPER MICHIGAN

CITY           SKY/WX    TMP DP  RH WIND       PRES   REMARKS
MANISTIQUE     SUNNY     62  37  40 N17G24    30.14R
ESCANABA       MOSUNNY   64  39  39 NE13G20   30.14R
MENOMINEE      SUNNY     61  41  48 E12       30.14R
SAWYER-GWINN   SUNNY     57  37  47 NE18G24   30.17R
$$
MIZ001>003-009>011-084-042000-
WESTERN UPPER MICHIGAN

CITY           SKY/WX    TMP DP  RH WIND       PRES   REMARKS
IRON MOUNTAIN  SUNNY     67  32  27 NW13G18   30.14R
HOUGHTON       SUNNY     57  36  45 NW12      30.17R
COPPER HARBOR    N/A     50  38  63 N13       30.16R
IRONWOOD       MOSUNNY   59  30  33 N8        30.18R
$$

ABBREVIATIONS USED IN REMARKS
   TC - TEMPERATURE IN CELSIUS
  WCI - WIND CHILL INDEX
   HX - HEAT INDEX
  VSB - VISIBILITY



USA.gov is the U.S. government's official web portal to all federal, state and local government web resources and services.